Location: Zagreb
(45.8000°N, 16.0000°E)
Time: 02:18:37
(UTC+02:00)

Transit 2A Rocket - Pass Details

Date: 31 January 2022
Orbit: 592 x 909 km, 66.7° (Epoch: 26 May)

Event Time Altitude Azimuth Distance (km) Brightness Sun altitude
Rises 03:51:47 0° 310° (NW) 3,364 - -36.2°
Reaches altitude 10° 03:55:51 10° 282° (WNW) 2,346 - -35.5°
Maximum altitude 03:57:55 12° 259° (W) 2,146 - -35.1°
Drops below altitude 10° 03:59:55 10° 236° (SW) 2,255 - -34.8°
Sets 04:03:39 0° 207° (SSW) 3,087 - -34.2°
